Time,TemperatureF,DewpointF,PressureIn,WindDirection,WindDirectionDegrees,WindSpeedMPH,WindSpeedGustMPH,Humidity,HourlyPrecipIn,Conditions,Clouds,dailyrainin,SoftwareType,DateUTC
2013-06-09 00:01:00,66.2,57.3,30.12,ESE,112,4.6,4.6,73,0.00,CLR,CLR,0.00,WeatherDisplay:10.37,2013-06-09 04:01:00,
2013-06-09 00:02:00,66.2,56.9,30.12,ESE,112,3.8,3.8,72,0.00,CLR,CLR,0.00,WeatherDisplay:10.37,2013-06-09 04:02:00,
2013-06-09 00:07:00,66.4,57.1,30.12,ESE,112,3.5,3.8,72,0.00,CLR,CLR,0.00,WeatherDisplay:10.37,2013-06-09 04:07:00,
2013-06-09 00:12:00,66.4,57.1,30.12,ESE,112,3.5,3.5,72,0.00,CLR,CLR,0.00,WeatherDisplay:10.37,2013-06-09 04:12:00,
2013-06-09 00:18:00,66.4,57.1,30.12,ESE,112,4.6,4.6,72,0.00,CLR,CLR,0.00,WeatherDisplay:10.37,2013-06-09 04:18:00,
2013-06-09 00:23:00,66.4,57.5,30.12,ENE,68,3.6,3.6,73,0.00,CLR,CLR,0.00,WeatherDisplay:10.37,2013-06-09 04:23:00,
2013-06-09 00:28:00,66.2,57.3,30.12,ESE,112,4.9,4.9,73,0.00,CLR,CLR,0.00,WeatherDisplay:10.37,2013-06-09 04:28:00,
2013-06-09 00:33:00,66.2,57.7,30.12,ENE,68,3.5,3.5,74,0.00,CLR,CLR,0.00,WeatherDisplay:10.37,2013-06-09 04:33:00,
2013-06-09 00:38:00,66.0,57.9,30.12,East,90,2.3,2.3,75,0.00,CLR,CLR,0.00,WeatherDisplay:10.37,2013-06-09 04:38:00,
2013-06-09 00:44:00,65.8,58.1,30.12,ESE,112,2.3,2.4,76,0.00,CLR,CLR,0.00,WeatherDisplay:10.37,2013-06-09 04:44:00,
2013-06-09 00:49:00,65.8,58.4,30.12,East,90,2.4,2.4,77,0.00,CLR,CLR,0.00,WeatherDisplay:10.37,2013-06-09 04:49:00,
2013-06-09 00:54:00,65.7,58.6,30.12,ENE,68,2.3,2.3,78,0.00,CLR,CLR,0.00,WeatherDisplay:10.37,2013-06-09 04:54:00,
2013-06-09 00:59:00,65.7,59.0,30.12,East,90,4.6,4.6,79,0.00,CLR,CLR,0.00,WeatherDisplay:10.37,2013-06-09 04:59:00,
2013-06-09 01:04:00,65.7,59.0,30.12,ENE,68,3.5,3.5,79,0.00,CLR,CLR,0.00,WeatherDisplay:10.37,2013-06-09 05:04:00,
2013-06-09 01:09:00,65.5,58.8,30.12,ENE,68,2.3,3.1,79,0.00,CLR,CLR,0.00,WeatherDisplay:10.37,2013-06-09 05:09:00,
2013-06-09 01:14:00,65.5,58.8,30.12,ESE,112,4.9,4.9,79,0.00,CLR,CLR,0.00,WeatherDisplay:10.37,2013-06-09 05:14:00,
2013-06-09 01:20:00,65.5,58.8,30.12,ESE,112,3.5,3.5,79,0.00,CLR,CLR,0.00,WeatherDisplay:10.37,2013-06-09 05:20:00,
2013-06-09 01:25:00,65.5,58.8,30.12,ENE,68,4.6,4.6,79,0.00,CLR,CLR,0.00,WeatherDisplay:10.37,2013-06-09 05:25:00,
2013-06-09 01:30:00,65.5,58.8,30.12,ENE,68,5.8,5.8,79,0.00,CLR,CLR,0.00,WeatherDisplay:10.37,2013-06-09 05:30:00,
2013-06-09 01:35:00,65.5,58.8,30.12,ESE,112,3.6,3.6,79,0.00,CLR,CLR,0.00,WeatherDisplay:10.37,2013-06-09 05:35:00,
2013-06-09 01:40:00,65.5,58.8,30.12,ENE,68,3.3,3.3,79,0.00,CLR,CLR,0.00,WeatherDisplay:10.37,2013-06-09 05:40:00,
2013-06-09 01:46:00,65.5,58.4,30.12,ENE,68,4.6,4.6,78,0.00,CLR,CLR,0.00,WeatherDisplay:10.37,2013-06-09 05:46:00,
2013-06-09 01:51:00,65.7,58.6,30.12,ESE,112,3.5,3.5,78,0.00,CLR,CLR,0.00,WeatherDisplay:10.37,2013-06-09 05:51:00,
2013-06-09 01:56:00,65.5,58.4,30.12,ENE,68,3.5,3.5,78,0.00,CLR,CLR,0.00,WeatherDisplay:10.37,2013-06-09 05:56:00,
2013-06-09 02:02:00,65.5,58.4,30.12,ENE,68,3.8,3.8,78,0.00,CLR,CLR,0.00,WeatherDisplay:10.37,2013-06-09 06:02:00,
2013-06-09 02:07:00,65.3,58.6,30.12,ESE,112,3.5,3.5,79,0.00,CLR,CLR,0.00,WeatherDisplay:10.37,2013-06-09 06:07:00,
2013-06-09 02:12:00,65.3,58.3,30.12,ENE,68,4.6,4.6,78,0.00,CLR,CLR,0.00,WeatherDisplay:10.37,2013-06-09 06:12:00,
2013-06-09 02:17:00,65.3,58.3,30.12,East,90,3.8,3.8,78,0.00,CLR,CLR,0.00,WeatherDisplay:10.37,2013-06-09 06:17:00,
2013-06-09 02:22:00,65.3,58.3,30.12,ENE,68,3.5,3.5,78,0.00,CLR,CLR,0.00,WeatherDisplay:10.37,2013-06-09 06:22:00,
2013-06-09 02:27:00,65.1,58.4,30.12,East,90,3.5,3.5,79,0.00,CLR,CLR,0.00,WeatherDisplay:10.37,2013-06-09 06:27:00,
2013-06-09 02:33:00,65.1,58.4,30.12,ENE,68,2.6,3.1,79,0.00,CLR,CLR,0.00,WeatherDisplay:10.37,2013-06-09 06:33:00,
2013-06-09 02:38:00,64.9,58.3,30.12,ESE,112,4.6,4.6,79,0.00,CLR,CLR,0.00,WeatherDisplay:10.37,2013-06-09 06:38:00,
2013-06-09 02:43:00,64.8,58.1,30.12,ENE,68,3.5,3.5,79,0.00,CLR,CLR,0.00,WeatherDisplay:10.37,2013-06-09 06:43:00,
2013-06-09 02:48:00,64.8,58.1,30.12,ESE,112,4.6,4.6,79,0.00,CLR,CLR,0.00,WeatherDisplay:10.37,2013-06-09 06:48:00,
2013-06-09 02:53:00,64.8,58.1,30.12,ENE,68,3.5,3.5,79,0.00,CLR,CLR,0.00,WeatherDisplay:10.37,2013-06-09 06:53:00,
2013-06-09 02:59:00,64.8,58.1,30.12,ESE,112,4.6,4.6,79,0.00,CLR,CLR,0.00,WeatherDisplay:10.37,2013-06-09 06:59:00,
2013-06-09 03:04:00,64.8,58.4,30.12,ENE,68,4.6,4.6,80,0.00,CLR,CLR,0.00,WeatherDisplay:10.37,2013-06-09 07:04:00,
2013-06-09 03:09:00,64.8,58.4,30.12,ENE,68,2.3,2.3,80,0.00,CLR,CLR,0.00,WeatherDisplay:10.37,2013-06-09 07:09:00,
2013-06-09 03:14:00,64.6,58.3,30.12,ENE,68,3.5,3.5,80,0.00,CLR,CLR,0.00,WeatherDisplay:10.37,2013-06-09 07:14:00,
2013-06-09 03:19:00,64.4,58.1,30.12,ESE,112,2.9,2.9,80,0.00,CLR,CLR,0.00,WeatherDisplay:10.37,2013-06-09 07:19:00,
2013-06-09 03:24:00,64.4,58.1,30.12,ENE,68,4.6,4.6,80,0.00,CLR,CLR,0.00,WeatherDisplay:10.37,2013-06-09 07:24:00,
2013-06-09 03:29:00,64.4,58.1,30.12,ENE,68,5.8,5.8,80,0.00,CLR,CLR,0.00,WeatherDisplay:10.37,2013-06-09 07:29:00,
2013-06-09 03:35:00,64.4,58.1,30.12,ESE,112,5.4,5.4,80,0.00,CLR,CLR,0.00,WeatherDisplay:10.37,2013-06-09 07:35:00,
2013-06-09 03:40:00,64.4,58.1,30.12,ENE,68,4.6,4.6,80,0.00,CLR,CLR,0.00,WeatherDisplay:10.37,2013-06-09 07:40:00,
2013-06-09 03:45:00,64.4,58.4,30.12,East,90,5.8,5.8,81,0.00,CLR,CLR,0.00,WeatherDisplay:10.37,2013-06-09 07:45:00,
2013-06-09 03:50:00,64.6,58.3,30.12,ENE,68,6.9,6.9,80,0.00,CLR,CLR,0.00,WeatherDisplay:10.37,2013-06-09 07:50:00,
2013-06-09 03:55:00,64.6,58.6,30.12,ESE,112,4.6,4.6,81,0.00,CLR,CLR,0.00,WeatherDisplay:10.37,2013-06-09 07:55:00,
2013-06-09 04:00:00,64.6,58.6,30.12,ESE,112,3.5,3.5,81,0.00,CLR,CLR,0.00,WeatherDisplay:10.37,2013-06-09 08:00:00,
2013-06-09 04:05:00,64.6,58.6,30.12,ESE,112,5.8,5.8,81,0.00,CLR,CLR,0.00,WeatherDisplay:10.37,2013-06-09 08:05:00,
2013-06-09 04:10:00,64.8,58.8,30.12,ESE,112,5.8,5.8,81,0.00,CLR,CLR,0.00,WeatherDisplay:10.37,2013-06-09 08:10:00,
2013-06-09 04:16:00,64.8,58.8,30.12,ESE,112,5.8,5.8,81,0.00,CLR,CLR,0.00,WeatherDisplay:10.37,2013-06-09 08:16:00,
2013-06-09 04:21:00,64.8,58.4,30.12,ESE,112,5.8,5.8,80,0.00,CLR,CLR,0.00,WeatherDisplay:10.37,2013-06-09 08:21:00,
2013-06-09 04:27:00,64.8,58.4,30.12,ENE,68,4.6,4.6,80,0.00,CLR,CLR,0.00,WeatherDisplay:10.37,2013-06-09 08:27:00,
2013-06-09 04:32:00,64.9,58.6,30.12,East,90,3.6,3.6,80,0.00,CLR,CLR,0.00,WeatherDisplay:10.37,2013-06-09 08:32:00,
2013-06-09 04:37:00,64.8,58.8,30.12,ESE,112,5.4,5.4,81,0.00,CLR,CLR,0.00,WeatherDisplay:10.37,2013-06-09 08:37:00,
2013-06-09 04:42:00,64.8,58.8,30.12,ENE,68,3.5,3.8,81,0.00,CLR,CLR,0.00,WeatherDisplay:10.37,2013-06-09 08:42:00,
2013-06-09 04:47:00,64.8,58.8,30.12,NE,45,3.6,3.6,81,0.00,CLR,CLR,0.00,WeatherDisplay:10.37,2013-06-09 08:47:00,
2013-06-09 04:52:00,64.8,58.8,30.12,ENE,68,4.0,4.0,81,0.00,CLR,CLR,0.00,WeatherDisplay:10.37,2013-06-09 08:52:00,
2013-06-09 04:58:00,64.6,59.0,30.12,ESE,112,5.8,5.8,82,0.00,CLR,CLR,0.00,WeatherDisplay:10.37,2013-06-09 08:58:00,
2013-06-09 05:03:00,64.6,59.0,30.12,ENE,68,3.5,3.5,82,0.00,CLR,CLR,0.00,WeatherDisplay:10.37,2013-06-09 09:03:00,
2013-06-09 05:08:00,64.6,59.0,30.12,ENE,68,5.8,5.8,82,0.00,CLR,CLR,0.00,WeatherDisplay:10.37,2013-06-09 09:08:00,
2013-06-09 05:13:00,64.6,59.0,30.12,ESE,112,5.8,5.8,82,0.00,CLR,CLR,0.00,WeatherDisplay:10.37,2013-06-09 09:13:00,
2013-06-09 05:18:00,64.6,59.0,30.12,ENE,68,4.6,4.6,82,0.00,CLR,CLR,0.00,WeatherDisplay:10.37,2013-06-09 09:18:00,
2013-06-09 05:24:00,64.4,58.8,30.12,ENE,68,4.6,4.6,82,0.00,CLR,CLR,0.00,WeatherDisplay:10.37,2013-06-09 09:24:00,
2013-06-09 05:29:00,64.4,58.8,30.12,East,90,4.6,4.6,82,0.00,CLR,CLR,0.00,WeatherDisplay:10.37,2013-06-09 09:29:00,
2013-06-09 05:34:00,64.2,58.9,30.12,ESE,112,4.6,4.6,83,0.00,CLR,CLR,0.00,WeatherDisplay:10.37,2013-06-09 09:34:00,
2013-06-09 05:39:00,64.2,58.9,30.12,ENE,68,4.6,4.6,83,0.00,CLR,CLR,0.00,WeatherDisplay:10.37,2013-06-09 09:39:00,
2013-06-09 05:44:00,64.2,58.9,30.12,ESE,112,4.6,4.6,83,0.00,CLR,CLR,0.00,WeatherDisplay:10.37,2013-06-09 09:44:00,
2013-06-09 05:50:00,64.2,58.9,30.12,ENE,68,5.8,5.8,83,0.00,CLR,CLR,0.00,WeatherDisplay:10.37,2013-06-09 09:50:00,
2013-06-09 05:55:00,64.2,59.3,30.12,ENE,68,5.8,5.8,84,0.00,CLR,CLR,0.00,WeatherDisplay:10.37,2013-06-09 09:55:00,
2013-06-09 06:00:00,64.2,59.3,30.12,ESE,112,3.5,3.5,84,0.00,CLR,CLR,0.00,WeatherDisplay:10.37,2013-06-09 10:00:00,
2013-06-09 06:05:00,64.2,59.3,30.12,ESE,112,4.6,4.6,84,0.00,CLR,CLR,0.00,WeatherDisplay:10.37,2013-06-09 10:05:00,
2013-06-09 06:10:00,64.0,59.1,30.12,ENE,68,3.5,3.5,84,0.00,CLR,CLR,0.00,WeatherDisplay:10.37,2013-06-09 10:10:00,
2013-06-09 06:16:00,64.0,59.1,30.12,ENE,68,4.6,4.6,84,0.00,CLR,CLR,0.00,WeatherDisplay:10.37,2013-06-09 10:16:00,
2013-06-09 06:21:00,63.9,59.3,30.12,ESE,112,5.8,5.8,85,0.00,CLR,CLR,0.00,WeatherDisplay:10.37,2013-06-09 10:21:00,
2013-06-09 06:26:00,63.9,59.3,30.12,ENE,68,4.6,4.6,85,0.00,CLR,CLR,0.00,WeatherDisplay:10.37,2013-06-09 10:26:00,
2013-06-09 06:31:00,63.9,59.3,30.12,ESE,112,4.6,4.6,85,0.00,CLR,CLR,0.00,WeatherDisplay:10.37,2013-06-09 10:31:00,
2013-06-09 06:36:00,63.9,59.3,30.12,ENE,68,3.5,3.5,85,0.00,CLR,CLR,0.00,WeatherDisplay:10.37,2013-06-09 10:36:00,
2013-06-09 06:42:00,63.9,59.3,30.12,ESE,112,4.6,4.6,85,0.00,CLR,CLR,0.00,WeatherDisplay:10.37,2013-06-09 10:42:00,
2013-06-09 06:47:00,64.0,59.4,30.12,ESE,112,4.6,4.6,85,0.00,CLR,CLR,0.00,WeatherDisplay:10.37,2013-06-09 10:47:00,
2013-06-09 06:52:00,64.0,59.4,30.12,ESE,112,4.0,4.0,85,0.00,CLR,CLR,0.00,WeatherDisplay:10.37,2013-06-09 10:52:00,
2013-06-09 06:57:00,64.0,59.4,30.12,ENE,68,4.6,4.6,85,0.00,CLR,CLR,0.00,WeatherDisplay:10.37,2013-06-09 10:57:00,
2013-06-09 07:02:00,64.2,59.6,30.12,East,90,5.8,5.8,85,0.00,CLR,CLR,0.00,WeatherDisplay:10.37,2013-06-09 11:02:00,
2013-06-09 07:07:00,64.4,59.5,30.15,SSE,158,5.8,5.8,84,0.00,CLR,CLR,0.00,WeatherDisplay:10.37,2013-06-09 11:07:00,
2013-06-09 07:12:00,64.8,59.8,30.15,ENE,68,4.6,4.6,84,0.00,CLR,CLR,0.00,WeatherDisplay:10.37,2013-06-09 11:12:00,
2013-06-09 07:17:00,65.1,59.8,30.15,ENE,68,4.9,4.9,83,0.00,CLR,CLR,0.00,WeatherDisplay:10.37,2013-06-09 11:17:00,
2013-06-09 07:22:00,65.3,60.0,30.15,ENE,68,3.5,3.5,83,0.00,CLR,CLR,0.00,WeatherDisplay:10.37,2013-06-09 11:22:00,
2013-06-09 07:28:00,65.5,60.2,30.15,ESE,112,3.5,3.5,83,0.00,CLR,CLR,0.00,WeatherDisplay:10.37,2013-06-09 11:28:00,
2013-06-09 07:33:00,65.5,60.2,30.15,ESE,112,3.5,3.5,83,0.00,CLR,CLR,0.00,WeatherDisplay:10.37,2013-06-09 11:33:00,
2013-06-09 07:38:00,66.0,60.4,30.15,ENE,68,5.9,5.9,82,0.00,CLR,CLR,0.00,WeatherDisplay:10.37,2013-06-09 11:38:00,
2013-06-09 07:43:00,66.9,60.5,30.15,ESE,112,6.9,6.9,80,0.00,CLR,CLR,0.00,WeatherDisplay:10.37,2013-06-09 11:43:00,
2013-06-09 07:48:00,67.5,60.7,30.15,ENE,68,5.8,5.8,79,0.00,CLR,CLR,0.00,WeatherDisplay:10.37,2013-06-09 11:48:00,
2013-06-09 07:53:00,67.6,60.5,30.15,ESE,112,5.8,5.8,78,0.00,CLR,CLR,0.00,WeatherDisplay:10.37,2013-06-09 11:53:00,
2013-06-09 07:58:00,67.6,60.2,30.15,ESE,112,9.2,9.2,77,0.00,CLR,CLR,0.00,WeatherDisplay:10.37,2013-06-09 11:58:00,
2013-06-09 08:04:00,68.0,60.5,30.15,ESE,112,5.8,5.8,77,0.00,CLR,CLR,0.00,WeatherDisplay:10.37,2013-06-09 12:04:00,
2013-06-09 08:09:00,68.5,60.7,30.15,East,90,3.6,4.5,76,0.00,CLR,CLR,0.00,WeatherDisplay:10.37,2013-06-09 12:09:00,
2013-06-09 08:14:00,69.1,60.8,30.15,ESE,112,7.1,7.1,75,0.00,CLR,CLR,0.00,WeatherDisplay:10.37,2013-06-09 12:14:00,
2013-06-09 08:19:00,69.1,60.4,30.15,ENE,68,5.9,5.9,74,0.00,CLR,CLR,0.00,WeatherDisplay:10.37,2013-06-09 12:19:00,
2013-06-09 08:24:00,70.0,60.9,30.15,ESE,112,8.1,8.1,73,0.00,CLR,CLR,0.00,WeatherDisplay:10.37,2013-06-09 12:24:00,
2013-06-09 08:29:00,70.5,60.7,30.15,ESE,112,8.1,8.1,71,0.00,CLR,CLR,0.00,WeatherDisplay:10.37,2013-06-09 12:29:00,
2013-06-09 08:35:00,71.1,61.2,30.15,ESE,112,6.9,6.9,71,0.00,CLR,CLR,0.00,WeatherDisplay:10.37,2013-06-09 12:35:00,
2013-06-09 08:40:00,72.3,61.6,30.15,ENE,68,8.5,8.5,69,0.00,CLR,CLR,0.00,WeatherDisplay:10.37,2013-06-09 12:40:00,
2013-06-09 08:45:00,70.9,60.6,30.15,ESE,112,6.9,6.9,70,0.00,CLR,CLR,0.00,WeatherDisplay:10.37,2013-06-09 12:45:00,
2013-06-09 08:50:00,71.6,61.3,30.15,ESE,112,5.9,5.9,70,0.00,CLR,CLR,0.00,WeatherDisplay:10.37,2013-06-09 12:50:00,
2013-06-09 08:55:00,72.3,61.6,30.15,ENE,68,5.8,5.8,69,0.00,CLR,CLR,0.00,WeatherDisplay:10.37,2013-06-09 12:55:00,
2013-06-09 09:01:00,72.9,61.7,30.15,SSE,158,6.9,6.9,68,0.00,CLR,CLR,0.00,WeatherDisplay:10.37,2013-06-09 13:01:00,
2013-06-09 09:06:00,73.4,61.3,30.15,ESE,112,5.8,6.9,66,0.00,CLR,CLR,0.00,WeatherDisplay:10.37,2013-06-09 13:06:00,
2013-06-09 09:11:00,74.3,62.2,30.15,ESE,112,5.8,5.8,66,0.00,CLR,CLR,0.00,WeatherDisplay:10.37,2013-06-09 13:11:00,
2013-06-09 09:16:00,74.3,61.3,30.15,SSE,158,7.6,7.6,64,0.00,CLR,CLR,0.00,WeatherDisplay:10.37,2013-06-09 13:16:00,
2013-06-09 09:21:00,74.5,61.5,30.15,ESE,112,4.0,4.0,64,0.00,CLR,CLR,0.00,WeatherDisplay:10.37,2013-06-09 13:21:00,
2013-06-09 09:26:00,75.0,62.0,30.15,SSW,202,6.9,6.9,64,0.00,CLR,CLR,0.00,WeatherDisplay:10.37,2013-06-09 13:26:00,
2013-06-09 09:32:00,76.1,62.6,30.15,ESE,112,5.8,5.8,63,0.00,CLR,CLR,0.00,WeatherDisplay:10.37,2013-06-09 13:32:00,
2013-06-09 09:37:00,75.7,61.8,30.15,SSE,158,5.8,5.8,62,0.00,CLR,CLR,0.00,WeatherDisplay:10.37,2013-06-09 13:37:00,
2013-06-09 09:42:00,75.6,61.6,30.15,East,90,4.6,4.6,62,0.00,CLR,CLR,0.00,WeatherDisplay:10.37,2013-06-09 13:42:00,
2013-06-09 09:47:00,75.4,61.9,30.15,SE,135,3.5,3.5,63,0.00,CLR,CLR,0.00,WeatherDisplay:10.37,2013-06-09 13:47:00,
2013-06-09 09:52:00,75.9,62.0,30.15,SSE,158,6.0,6.0,62,0.00,CLR,CLR,0.00,WeatherDisplay:10.37,2013-06-09 13:52:00,
2013-06-09 09:58:00,76.5,62.0,30.15,ESE,112,5.8,5.8,61,0.00,CLR,CLR,0.00,WeatherDisplay:10.37,2013-06-09 13:58:00,
2013-06-09 10:03:00,77.7,62.7,30.15,ENE,68,5.8,5.8,60,0.00,CLR,CLR,0.00,WeatherDisplay:10.37,2013-06-09 14:03:00,
2013-06-09 10:08:00,77.9,62.4,30.15,SSE,158,5.8,5.8,59,0.00,CLR,CLR,0.00,WeatherDisplay:10.37,2013-06-09 14:08:00,
2013-06-09 10:13:00,78.1,62.6,30.15,East,90,6.9,6.9,59,0.00,CLR,CLR,0.00,WeatherDisplay:10.37,2013-06-09 14:13:00,
2013-06-09 10:19:00,79.2,62.6,30.15,ESE,112,5.8,5.8,57,0.00,CLR,CLR,0.00,WeatherDisplay:10.37,2013-06-09 14:19:00,
2013-06-09 10:24:00,79.0,62.9,30.12,ENE,68,5.8,5.8,58,0.00,CLR,CLR,0.00,WeatherDisplay:10.37,2013-06-09 14:24:00,
2013-06-09 10:29:00,79.0,62.9,30.12,ESE,112,5.8,5.8,58,0.00,CLR,CLR,0.00,WeatherDisplay:10.37,2013-06-09 14:29:00,
2013-06-09 10:34:00,79.5,62.9,30.12,ESE,112,6.9,6.9,57,0.00,CLR,CLR,0.00,WeatherDisplay:10.37,2013-06-09 14:34:00,
2013-06-09 10:39:00,78.3,62.8,30.12,ENE,68,9.2,9.2,59,0.00,CLR,CLR,0.00,WeatherDisplay:10.37,2013-06-09 14:39:00,
2013-06-09 10:44:00,78.6,63.1,30.12,ENE,68,8.1,8.1,59,0.00,CLR,CLR,0.00,WeatherDisplay:10.37,2013-06-09 14:44:00,
2013-06-09 10:49:00,78.4,62.9,30.12,ENE,68,6.9,6.9,59,0.00,CLR,CLR,0.00,WeatherDisplay:10.37,2013-06-09 14:49:00,
2013-06-09 10:55:00,80.6,64.0,30.12,SSW,202,4.6,4.6,57,0.00,CLR,CLR,0.00,WeatherDisplay:10.37,2013-06-09 14:55:00,
2013-06-09 11:00:00,80.4,63.3,30.12,ENE,68,6.2,6.2,56,0.00,CLR,CLR,0.00,WeatherDisplay:10.37,2013-06-09 15:00:00,
2013-06-09 11:05:00,81.3,63.6,30.12,SSE,158,6.7,6.7,55,0.00,CLR,CLR,0.00,WeatherDisplay:10.37,2013-06-09 15:05:00,
2013-06-09 11:10:00,81.5,64.3,30.12,ESE,112,8.1,8.1,56,0.00,CLR,CLR,0.00,WeatherDisplay:10.37,2013-06-09 15:10:00,
2013-06-09 11:15:00,79.7,63.6,30.12,ESE,112,8.1,8.1,58,0.00,CLR,CLR,0.00,WeatherDisplay:10.37,2013-06-09 15:15:00,
2013-06-09 11:20:00,79.2,63.1,30.12,ENE,68,8.1,8.1,58,0.00,CLR,CLR,0.00,WeatherDisplay:10.37,2013-06-09 15:20:00,
2013-06-09 11:25:00,79.2,63.1,30.12,ESE,112,6.9,6.9,58,0.00,CLR,CLR,0.00,WeatherDisplay:10.37,2013-06-09 15:25:00,
2013-06-09 11:30:00,79.5,63.4,30.12,ESE,112,6.9,6.9,58,0.00,CLR,CLR,0.00,WeatherDisplay:10.37,2013-06-09 15:30:00,
2013-06-09 11:36:00,79.3,63.8,30.12,ENE,68,5.6,5.6,59,0.00,CLR,CLR,0.00,WeatherDisplay:10.37,2013-06-09 15:36:00,
2013-06-09 11:41:00,79.5,63.4,30.12,ENE,68,3.5,3.5,58,0.00,CLR,CLR,0.00,WeatherDisplay:10.37,2013-06-09 15:41:00,
2013-06-09 11:46:00,78.4,63.4,30.12,ESE,112,6.9,6.9,60,0.00,CLR,CLR,0.00,WeatherDisplay:10.37,2013-06-09 15:46:00,
2013-06-09 11:51:00,79.7,63.6,30.12,ESE,112,8.7,8.7,58,0.00,CLR,CLR,0.00,WeatherDisplay:10.37,2013-06-09 15:51:00,
2013-06-09 11:56:00,81.5,65.3,30.12,ESE,112,7.8,7.8,58,0.00,CLR,CLR,0.00,WeatherDisplay:10.37,2013-06-09 15:56:00,
2013-06-09 12:01:00,83.1,64.2,30.12,SSE,158,5.8,5.8,53,0.00,CLR,CLR,0.00,WeatherDisplay:10.37,2013-06-09 16:01:00,
2013-06-09 12:07:00,82.9,63.5,30.12,SSE,158,5.8,5.8,52,0.00,CLR,CLR,0.00,WeatherDisplay:10.37,2013-06-09 16:07:00,
2013-06-09 12:12:00,82.2,61.7,30.12,ENE,68,8.1,8.1,50,0.00,CLR,CLR,0.00,WeatherDisplay:10.37,2013-06-09 16:12:00,
2013-06-09 12:17:00,82.6,62.1,30.12,SE,135,8.1,8.1,50,0.00,CLR,CLR,0.00,WeatherDisplay:10.37,2013-06-09 16:17:00,
2013-06-09 12:23:00,82.9,62.4,30.12,SSE,158,2.6,2.9,50,0.00,CLR,CLR,0.00,WeatherDisplay:10.37,2013-06-09 16:23:00,
2013-06-09 12:28:00,82.0,59.8,30.12,SSE,158,4.6,4.6,47,0.00,CLR,CLR,0.00,WeatherDisplay:10.37,2013-06-09 16:28:00,
2013-06-09 12:33:00,82.0,60.4,30.12,SSE,158,5.8,5.8,48,0.00,CLR,CLR,0.00,WeatherDisplay:10.37,2013-06-09 16:33:00,
2013-06-09 12:38:00,81.7,57.6,30.12,ESE,112,6.9,6.9,44,0.00,CLR,CLR,0.00,WeatherDisplay:10.37,2013-06-09 16:38:00,
2013-06-09 12:43:00,82.8,58.0,30.12,SSE,158,3.6,3.6,43,0.00,CLR,CLR,0.00,WeatherDisplay:10.37,2013-06-09 16:43:00,
2013-06-09 12:49:00,83.5,58.6,30.12,ESE,112,10.2,10.2,43,0.00,CLR,CLR,0.00,WeatherDisplay:10.37,2013-06-09 16:49:00,
2013-06-09 12:54:00,83.7,58.8,30.12,East,90,5.8,5.8,43,0.00,CLR,CLR,0.00,WeatherDisplay:10.37,2013-06-09 16:54:00,
2013-06-09 12:59:00,84.2,58.6,30.12,ESE,112,5.4,5.4,42,0.00,CLR,CLR,0.00,WeatherDisplay:10.37,2013-06-09 16:59:00,
2013-06-09 13:04:00,83.1,58.3,30.12,ESE,112,6.4,6.4,43,0.00,CLR,CLR,0.00,WeatherDisplay:10.37,2013-06-09 17:04:00,
2013-06-09 13:09:00,82.0,58.0,30.12,SE,135,3.5,3.5,44,0.00,CLR,CLR,0.00,WeatherDisplay:10.37,2013-06-09 17:09:00,
2013-06-09 13:14:00,82.9,58.8,30.12,SSE,158,3.5,3.5,44,0.00,CLR,CLR,0.00,WeatherDisplay:10.37,2013-06-09 17:14:00,
2013-06-09 13:20:00,84.4,59.4,30.12,SSE,158,5.8,5.8,43,0.00,CLR,CLR,0.00,WeatherDisplay:10.37,2013-06-09 17:20:00,
2013-06-09 13:25:00,86.4,61.2,30.12,ENE,68,5.8,5.8,43,0.00,CLR,CLR,0.00,WeatherDisplay:10.37,2013-06-09 17:25:00,
2013-06-09 13:30:00,85.8,59.4,30.12,ENE,68,3.5,5.4,41,0.00,CLR,CLR,0.00,WeatherDisplay:10.37,2013-06-09 17:30:00,
2013-06-09 13:35:00,85.8,59.4,30.12,ESE,112,5.8,5.8,41,0.00,CLR,CLR,0.00,WeatherDisplay:10.37,2013-06-09 17:35:00,
2013-06-09 13:40:00,85.3,59.6,30.09,ESE,112,6.9,6.9,42,0.00,CLR,CLR,0.00,WeatherDisplay:10.37,2013-06-09 17:40:00,
2013-06-09 13:45:00,84.4,58.8,30.09,SSE,158,6.9,6.9,42,0.00,CLR,CLR,0.00,WeatherDisplay:10.37,2013-06-09 17:45:00,
2013-06-09 13:51:00,85.3,58.9,30.09,SSW,202,2.9,2.9,41,0.00,CLR,CLR,0.00,WeatherDisplay:10.37,2013-06-09 17:51:00,
2013-06-09 13:56:00,85.3,58.9,30.09,SSE,158,7.4,7.4,41,0.00,CLR,CLR,0.00,WeatherDisplay:10.37,2013-06-09 17:56:00,
2013-06-09 14:01:00,85.3,58.2,30.09,ESE,112,6.4,6.4,40,0.00,CLR,CLR,0.00,WeatherDisplay:10.37,2013-06-09 18:01:00,
2013-06-09 14:06:00,85.3,58.9,30.09,SSE,158,6.9,6.9,41,0.00,CLR,CLR,0.00,WeatherDisplay:10.37,2013-06-09 18:06:00,
2013-06-09 14:12:00,86.4,59.9,30.09,SSE,158,7.4,7.4,41,0.00,CLR,CLR,0.00,WeatherDisplay:10.37,2013-06-09 18:12:00,
2013-06-09 14:17:00,87.1,61.2,30.09,SSE,158,3.6,3.6,42,0.00,CLR,CLR,0.00,WeatherDisplay:10.37,2013-06-09 18:17:00,
2013-06-09 14:22:00,84.7,57.7,30.09,SSE,158,5.6,5.6,40,0.00,CLR,CLR,0.00,WeatherDisplay:10.37,2013-06-09 18:22:00,
2013-06-09 14:27:00,83.7,58.1,30.09,ESE,112,5.9,5.9,42,0.00,CLR,CLR,0.00,WeatherDisplay:10.37,2013-06-09 18:27:00,
2013-06-09 14:33:00,83.8,58.3,30.09,ENE,68,8.1,8.1,42,0.00,CLR,CLR,0.00,WeatherDisplay:10.37,2013-06-09 18:33:00,
2013-06-09 14:38:00,84.9,59.3,30.09,WSW,248,4.6,4.6,42,0.00,CLR,CLR,0.00,WeatherDisplay:10.37,2013-06-09 18:38:00,
2013-06-09 14:43:00,85.1,59.4,30.09,SSE,158,6.9,6.9,42,0.00,CLR,CLR,0.00,WeatherDisplay:10.37,2013-06-09 18:43:00,
2013-06-09 14:48:00,83.7,58.1,30.09,SSW,202,6.9,6.9,42,0.00,CLR,CLR,0.00,WeatherDisplay:10.37,2013-06-09 18:48:00,
2013-06-09 14:53:00,83.7,58.1,30.09,East,90,4.9,4.9,42,0.00,CLR,CLR,0.00,WeatherDisplay:10.37,2013-06-09 18:53:00,
2013-06-09 14:59:00,83.1,57.0,30.09,ESE,112,5.8,5.8,41,0.00,CLR,CLR,0.00,WeatherDisplay:10.37,2013-06-09 18:59:00,
2013-06-09 15:04:00,82.9,56.8,30.09,ESE,112,8.1,8.1,41,0.00,CLR,CLR,0.00,WeatherDisplay:10.37,2013-06-09 19:04:00,
2013-06-09 15:09:00,84.7,57.7,30.06,ENE,68,5.8,5.8,40,0.00,CLR,CLR,0.00,WeatherDisplay:10.37,2013-06-09 19:09:00,
2013-06-09 15:14:00,84.9,57.9,30.06,SSE,158,5.8,5.8,40,0.00,CLR,CLR,0.00,WeatherDisplay:10.37,2013-06-09 19:14:00,
2013-06-09 15:20:00,83.8,56.9,30.06,South,180,5.8,5.8,40,0.00,CLR,CLR,0.00,WeatherDisplay:10.37,2013-06-09 19:20:00,
2013-06-09 15:25:00,84.0,57.1,30.06,East,90,7.8,7.8,40,0.00,CLR,CLR,0.00,WeatherDisplay:10.37,2013-06-09 19:25:00,
2013-06-09 15:30:00,83.8,56.9,30.06,SSE,158,6.9,6.9,40,0.00,CLR,CLR,0.00,WeatherDisplay:10.37,2013-06-09 19:30:00,
2013-06-09 15:35:00,85.5,58.4,30.06,ESE,112,4.0,4.0,40,0.00,CLR,CLR,0.00,WeatherDisplay:10.37,2013-06-09 19:35:00,
2013-06-09 15:40:00,87.3,59.3,30.06,SSE,158,8.1,8.1,39,0.00,CLR,CLR,0.00,WeatherDisplay:10.37,2013-06-09 19:40:00,
2013-06-09 15:45:00,84.7,57.0,30.06,SSE,158,5.8,5.8,39,0.00,CLR,CLR,0.00,WeatherDisplay:10.37,2013-06-09 19:45:00,
2013-06-09 15:50:00,83.7,56.8,30.06,ESE,112,6.4,6.4,40,0.00,CLR,CLR,0.00,WeatherDisplay:10.37,2013-06-09 19:50:00,
2013-06-09 15:56:00,85.1,58.1,30.06,SSE,158,4.6,4.6,40,0.00,CLR,CLR,0.00,WeatherDisplay:10.37,2013-06-09 19:56:00,
2013-06-09 16:01:00,85.3,58.2,30.06,SE,135,3.5,3.5,40,0.00,CLR,CLR,0.00,WeatherDisplay:10.37,2013-06-09 20:01:00,
2013-06-09 16:06:00,84.6,57.6,30.06,ESE,112,7.4,7.4,40,0.00,CLR,CLR,0.00,WeatherDisplay:10.37,2013-06-09 20:06:00,
2013-06-09 16:12:00,85.6,58.5,30.06,SSE,158,4.6,4.6,40,0.00,CLR,CLR,0.00,WeatherDisplay:10.37,2013-06-09 20:12:00,
2013-06-09 16:17:00,86.2,58.3,30.06,SSE,158,6.9,6.9,39,0.00,CLR,CLR,0.00,WeatherDisplay:10.37,2013-06-09 20:17:00,
2013-06-09 16:22:00,84.7,57.7,30.06,SSE,158,9.2,9.2,40,0.00,CLR,CLR,0.00,WeatherDisplay:10.37,2013-06-09 20:22:00,
2013-06-09 16:27:00,83.8,57.6,30.06,SSE,158,10.4,10.4,41,0.00,CLR,CLR,0.00,WeatherDisplay:10.37,2013-06-09 20:27:00,
2013-06-09 16:32:00,85.3,58.9,30.06,ESE,112,8.1,8.1,41,0.00,CLR,CLR,0.00,WeatherDisplay:10.37,2013-06-09 20:32:00,
2013-06-09 16:37:00,85.3,58.9,30.06,ESE,112,8.1,8.1,41,0.00,CLR,CLR,0.00,WeatherDisplay:10.37,2013-06-09 20:37:00,
2013-06-09 16:42:00,86.2,59.0,30.06,ESE,112,5.8,5.8,40,0.00,CLR,CLR,0.00,WeatherDisplay:10.37,2013-06-09 20:42:00,
2013-06-09 16:48:00,86.9,59.7,30.06,ESE,112,6.9,6.9,40,0.00,CLR,CLR,0.00,WeatherDisplay:10.37,2013-06-09 20:48:00,
2013-06-09 16:53:00,86.2,59.0,30.06,ESE,112,8.1,8.1,40,0.00,CLR,CLR,0.00,WeatherDisplay:10.37,2013-06-09 20:53:00,
2013-06-09 16:58:00,83.7,57.5,30.06,South,180,6.4,6.4,41,0.00,CLR,CLR,0.00,WeatherDisplay:10.37,2013-06-09 20:58:00,
2013-06-09 17:03:00,83.1,57.0,30.06,ESE,112,6.9,6.9,41,0.00,CLR,CLR,0.00,WeatherDisplay:10.37,2013-06-09 21:03:00,
2013-06-09 17:08:00,83.3,57.1,30.06,SSW,202,6.9,6.9,41,0.00,CLR,CLR,0.00,WeatherDisplay:10.37,2013-06-09 21:08:00,
2013-06-09 17:13:00,82.4,57.0,30.06,SE,135,9.2,9.2,42,0.00,CLR,CLR,0.00,WeatherDisplay:10.37,2013-06-09 21:13:00,
2013-06-09 17:19:00,81.5,56.8,30.06,ESE,112,8.1,8.1,43,0.00,CLR,CLR,0.00,WeatherDisplay:10.37,2013-06-09 21:19:00,
2013-06-09 17:24:00,81.7,57.6,30.06,SSW,202,5.8,5.8,44,0.00,CLR,CLR,0.00,WeatherDisplay:10.37,2013-06-09 21:24:00,
2013-06-09 17:29:00,82.2,58.8,30.06,South,180,5.8,5.8,45,0.00,CLR,CLR,0.00,WeatherDisplay:10.37,2013-06-09 21:29:00,
2013-06-09 17:34:00,81.5,57.5,30.06,ESE,112,8.1,8.1,44,0.00,CLR,CLR,0.00,WeatherDisplay:10.37,2013-06-09 21:34:00,
2013-06-09 17:39:00,82.0,58.0,30.06,ENE,68,3.5,3.5,44,0.00,CLR,CLR,0.00,WeatherDisplay:10.37,2013-06-09 21:39:00,
2013-06-09 17:44:00,81.3,57.3,30.06,East,90,9.2,9.2,44,0.00,CLR,CLR,0.00,WeatherDisplay:10.37,2013-06-09 21:44:00,
2013-06-09 17:49:00,81.1,57.2,30.06,ESE,112,5.8,5.8,44,0.00,CLR,CLR,0.00,WeatherDisplay:10.37,2013-06-09 21:49:00,
2013-06-09 17:54:00,80.6,57.3,30.06,ESE,112,5.8,5.8,45,0.00,CLR,CLR,0.00,WeatherDisplay:10.37,2013-06-09 21:54:00,
2013-06-09 18:00:00,80.4,57.7,30.06,ESE,112,3.5,3.5,46,0.00,CLR,CLR,0.00,WeatherDisplay:10.37,2013-06-09 22:00:00,
2013-06-09 18:05:00,80.1,57.4,30.06,ESE,112,5.9,5.9,46,0.00,CLR,CLR,0.00,WeatherDisplay:10.37,2013-06-09 22:05:00,
2013-06-09 18:10:00,79.5,57.5,30.03,ESE,112,8.1,8.1,47,0.00,CLR,CLR,0.00,WeatherDisplay:10.37,2013-06-09 22:10:00,
2013-06-09 18:15:00,79.2,57.8,30.03,ESE,112,5.8,5.8,48,0.00,CLR,CLR,0.00,WeatherDisplay:10.37,2013-06-09 22:15:00,
2013-06-09 18:20:00,79.0,57.6,30.03,ESE,112,5.8,5.8,48,0.00,CLR,CLR,0.00,WeatherDisplay:10.37,2013-06-09 22:20:00,
2013-06-09 18:26:00,79.0,58.2,30.03,East,90,4.6,4.6,49,0.00,CLR,CLR,0.00,WeatherDisplay:10.37,2013-06-09 22:26:00,
2013-06-09 18:31:00,78.6,58.4,30.03,SSE,158,3.6,3.6,50,0.00,CLR,CLR,0.00,WeatherDisplay:10.37,2013-06-09 22:31:00,
2013-06-09 18:36:00,78.4,58.8,30.06,SSW,202,5.8,5.8,51,0.00,CLR,CLR,0.00,WeatherDisplay:10.37,2013-06-09 22:36:00,
2013-06-09 18:42:00,78.4,58.8,30.06,SSW,202,3.5,3.5,51,0.00,CLR,CLR,0.00,WeatherDisplay:10.37,2013-06-09 22:42:00,
2013-06-09 18:47:00,78.3,59.2,30.06,SSE,158,5.9,5.9,52,0.00,CLR,CLR,0.00,WeatherDisplay:10.37,2013-06-09 22:47:00,
2013-06-09 18:52:00,78.3,59.2,30.06,SSE,158,11.5,11.5,52,0.00,CLR,CLR,0.00,WeatherDisplay:10.37,2013-06-09 22:52:00,
2013-06-09 18:57:00,77.9,59.4,30.06,ESE,112,5.8,5.8,53,0.00,CLR,CLR,0.00,WeatherDisplay:10.37,2013-06-09 22:57:00,
2013-06-09 19:02:00,77.9,59.9,30.06,SSE,158,4.6,4.6,54,0.00,CLR,CLR,0.00,WeatherDisplay:10.37,2013-06-09 23:02:00,
2013-06-09 19:08:00,77.7,59.7,30.06,SSE,158,4.6,4.6,54,0.00,CLR,CLR,0.00,WeatherDisplay:10.37,2013-06-09 23:08:00,
2013-06-09 19:13:00,77.7,60.3,30.06,South,180,3.5,3.5,55,0.00,CLR,CLR,0.00,WeatherDisplay:10.37,2013-06-09 23:13:00,
2013-06-09 19:18:00,77.5,60.1,30.06,ESE,112,7.6,7.6,55,0.00,CLR,CLR,0.00,WeatherDisplay:10.37,2013-06-09 23:18:00,
2013-06-09 19:23:00,77.4,59.9,30.06,SSE,158,6.2,6.2,55,0.00,CLR,CLR,0.00,WeatherDisplay:10.37,2013-06-09 23:23:00,
2013-06-09 19:28:00,77.4,60.4,30.06,East,90,4.6,4.6,56,0.00,CLR,CLR,0.00,WeatherDisplay:10.37,2013-06-09 23:28:00,
2013-06-09 19:33:00,77.2,60.3,30.06,East,90,4.6,4.6,56,0.00,CLR,CLR,0.00,WeatherDisplay:10.37,2013-06-09 23:33:00,
2013-06-09 19:38:00,76.8,60.4,30.06,SSW,202,5.8,5.8,57,0.00,CLR,CLR,0.00,WeatherDisplay:10.37,2013-06-09 23:38:00,
2013-06-09 19:44:00,76.6,60.8,30.06,SSW,202,5.8,5.8,58,0.00,CLR,CLR,0.00,WeatherDisplay:10.37,2013-06-09 23:44:00,
2013-06-09 19:49:00,76.3,60.9,30.06,SSE,158,4.6,4.6,59,0.00,CLR,CLR,0.00,WeatherDisplay:10.37,2013-06-09 23:49:00,
2013-06-09 19:54:00,75.9,61.0,30.06,SSE,158,2.9,2.9,60,0.00,CLR,CLR,0.00,WeatherDisplay:10.37,2013-06-09 23:54:00,
2013-06-09 19:59:00,75.7,61.3,30.06,SSE,158,3.1,3.1,61,0.00,CLR,CLR,0.00,WeatherDisplay:10.37,2013-06-09 23:59:00,
2013-06-09 20:05:00,75.2,62.2,30.06,SSE,158,4.6,4.6,64,0.00,CLR,CLR,0.00,WeatherDisplay:10.37,2013-06-10 00:05:00,
2013-06-09 20:10:00,74.5,62.4,30.06,ESE,112,3.3,3.3,66,0.00,CLR,CLR,0.00,WeatherDisplay:10.37,2013-06-10 00:10:00,
2013-06-09 20:15:00,73.8,63.4,30.06,ESE,112,2.3,2.3,70,0.00,CLR,CLR,0.00,WeatherDisplay:10.37,2013-06-10 00:15:00,
2013-06-09 20:20:00,73.2,63.6,30.06,ENE,68,1.4,0.0,72,0.00,CLR,CLR,0.00,WeatherDisplay:10.37,2013-06-10 00:20:00,
2013-06-09 20:25:00,72.7,63.5,30.06,SE,135,1.2,1.2,73,0.00,CLR,CLR,0.00,WeatherDisplay:10.37,2013-06-10 00:25:00,
2013-06-09 20:30:00,72.1,64.5,30.06,SSE,158,3.8,3.8,77,0.00,CLR,CLR,0.00,WeatherDisplay:10.37,2013-06-10 00:30:00,
2013-06-09 20:36:00,71.6,65.1,30.06,SSE,158,3.5,3.6,80,0.00,CLR,CLR,0.00,WeatherDisplay:10.37,2013-06-10 00:36:00,
2013-06-09 20:41:00,71.4,65.3,30.06,SSE,158,5.8,5.8,81,0.00,CLR,CLR,0.00,WeatherDisplay:10.37,2013-06-10 00:41:00,
2013-06-09 20:46:00,71.1,65.6,30.06,SSW,202,4.6,4.6,83,0.00,CLR,CLR,0.00,WeatherDisplay:10.37,2013-06-10 00:46:00,
2013-06-09 20:51:00,70.9,65.8,30.06,SSE,158,3.5,3.5,84,0.00,CLR,CLR,0.00,WeatherDisplay:10.37,2013-06-10 00:51:00,
2013-06-09 20:56:00,70.5,65.8,30.06,ESE,112,3.1,3.1,85,0.00,CLR,CLR,0.00,WeatherDisplay:10.37,2013-06-10 00:56:00,
2013-06-09 21:01:00,70.3,65.6,30.06,SSE,158,3.5,3.5,85,0.00,CLR,CLR,0.00,WeatherDisplay:10.37,2013-06-10 01:01:00,
2013-06-09 21:07:00,70.3,66.0,30.06,ESE,112,5.8,5.8,86,0.00,CLR,CLR,0.00,WeatherDisplay:10.37,2013-06-10 01:07:00,
2013-06-09 21:12:00,70.3,66.0,30.06,ESE,112,5.8,5.8,86,0.00,CLR,CLR,0.00,WeatherDisplay:10.37,2013-06-10 01:12:00,
2013-06-09 21:17:00,70.2,65.4,30.06,ESE,112,4.6,4.6,85,0.00,CLR,CLR,0.00,WeatherDisplay:10.37,2013-06-10 01:17:00,
2013-06-09 21:22:00,70.2,65.4,30.06,ESE,112,2.4,2.4,85,0.00,CLR,CLR,0.00,WeatherDisplay:10.37,2013-06-10 01:22:00,
2013-06-09 21:27:00,70.2,65.4,30.06,SSE,158,3.1,3.3,85,0.00,CLR,CLR,0.00,WeatherDisplay:10.37,2013-06-10 01:27:00,
2013-06-09 21:32:00,70.2,65.4,30.06,SSE,158,5.8,5.8,85,0.00,CLR,CLR,0.00,WeatherDisplay:10.37,2013-06-10 01:32:00,
2013-06-09 21:38:00,70.2,65.4,30.06,SSE,158,5.8,5.8,85,0.00,CLR,CLR,0.00,WeatherDisplay:10.37,2013-06-10 01:38:00,
2013-06-09 21:43:00,70.2,65.4,30.06,ESE,112,8.1,8.1,85,0.00,CLR,CLR,0.00,WeatherDisplay:10.37,2013-06-10 01:43:00,
2013-06-09 21:48:00,70.2,65.4,30.06,ESE,112,5.8,5.8,85,0.00,CLR,CLR,0.00,WeatherDisplay:10.37,2013-06-10 01:48:00,
2013-06-09 21:53:00,70.2,65.1,30.06,SSE,158,3.8,3.8,84,0.00,CLR,CLR,0.00,WeatherDisplay:10.37,2013-06-10 01:53:00,
2013-06-09 21:58:00,70.2,65.4,30.06,ESE,112,5.8,5.8,85,0.00,CLR,CLR,0.00,WeatherDisplay:10.37,2013-06-10 01:58:00,
2013-06-09 22:03:00,70.0,65.3,30.06,ESE,112,4.6,4.6,85,0.00,CLR,CLR,0.00,WeatherDisplay:10.37,2013-06-10 02:03:00,
2013-06-09 22:08:00,70.0,65.3,30.03,SSE,158,5.6,5.6,85,0.00,CLR,CLR,0.00,WeatherDisplay:10.37,2013-06-10 02:08:00,
2013-06-09 22:14:00,70.0,65.3,30.03,ESE,112,7.6,7.6,85,0.00,CLR,CLR,0.00,WeatherDisplay:10.37,2013-06-10 02:14:00,
2013-06-09 22:19:00,70.0,65.3,30.03,ESE,112,8.1,8.1,85,0.00,CLR,CLR,0.00,WeatherDisplay:10.37,2013-06-10 02:19:00,
2013-06-09 22:24:00,69.8,65.1,30.03,ESE,112,8.1,8.1,85,0.00,CLR,CLR,0.00,WeatherDisplay:10.37,2013-06-10 02:24:00,
2013-06-09 22:29:00,69.8,65.1,30.03,SSE,158,9.2,9.2,85,0.00,CLR,CLR,0.00,WeatherDisplay:10.37,2013-06-10 02:29:00,
2013-06-09 22:34:00,69.8,65.1,30.03,SSE,158,10.4,10.4,85,0.00,CLR,CLR,0.00,WeatherDisplay:10.37,2013-06-10 02:34:00,
2013-06-09 22:40:00,69.8,65.1,30.03,ESE,112,8.1,8.1,85,0.00,CLR,CLR,0.00,WeatherDisplay:10.37,2013-06-10 02:40:00,
2013-06-09 22:45:00,69.8,65.4,30.03,ESE,112,8.1,8.1,86,0.00,CLR,CLR,0.00,WeatherDisplay:10.37,2013-06-10 02:45:00,
2013-06-09 22:50:00,69.8,65.1,30.03,SSE,158,6.9,6.9,85,0.00,CLR,CLR,0.00,WeatherDisplay:10.37,2013-06-10 02:50:00,
2013-06-09 22:55:00,69.6,65.2,30.03,SSE,158,8.1,8.1,86,0.00,CLR,CLR,0.00,WeatherDisplay:10.37,2013-06-10 02:55:00,
2013-06-09 23:00:00,69.6,65.2,30.03,ESE,112,10.4,10.4,86,0.00,CLR,CLR,0.00,WeatherDisplay:10.37,2013-06-10 03:00:00,
2013-06-09 23:05:00,69.6,65.2,30.03,ESE,112,10.4,10.4,86,0.00,CLR,CLR,0.00,WeatherDisplay:10.37,2013-06-10 03:05:00,
2013-06-09 23:11:00,69.6,65.2,30.03,ENE,68,10.7,10.7,86,0.00,CLR,CLR,0.00,WeatherDisplay:10.37,2013-06-10 03:11:00,
2013-06-09 23:16:00,69.6,65.2,30.03,SE,135,8.1,8.1,86,0.00,CLR,CLR,0.00,WeatherDisplay:10.37,2013-06-10 03:16:00,
2013-06-09 23:21:00,69.6,64.9,30.03,East,90,6.9,6.9,85,0.00,CLR,CLR,0.00,WeatherDisplay:10.37,2013-06-10 03:21:00,
2013-06-09 23:26:00,69.4,65.1,30.03,East,90,8.1,8.1,86,0.00,CLR,CLR,0.00,WeatherDisplay:10.37,2013-06-10 03:26:00,
2013-06-09 23:32:00,69.4,64.7,30.03,East,90,11.5,11.5,85,0.00,CLR,CLR,0.00,WeatherDisplay:10.37,2013-06-10 03:32:00,
2013-06-09 23:37:00,69.4,65.1,30.03,ESE,112,11.5,11.5,86,0.00,CLR,CLR,0.00,WeatherDisplay:10.37,2013-06-10 03:37:00,
2013-06-09 23:42:00,69.3,65.2,30.03,ESE,112,11.5,11.5,87,0.00,CLR,CLR,0.00,WeatherDisplay:10.37,2013-06-10 03:42:00,
2013-06-09 23:47:00,69.1,65.0,30.03,SSE,158,8.1,8.1,87,0.00,CLR,CLR,0.00,WeatherDisplay:10.37,2013-06-10 03:47:00,
2013-06-09 23:52:00,68.9,65.2,30.03,ESE,112,6.9,6.9,88,0.00,CLR,CLR,0.00,WeatherDisplay:10.37,2013-06-10 03:52:00,
2013-06-09 23:57:00,68.9,65.2,30.03,SSE,158,6.9,6.9,88,0.00,CLR,CLR,0.00,WeatherDisplay:10.37,2013-06-10 03:57:00,